Temperature
25 24 23 22 21 20 20 20 19 19 19 19 19 18 18 18 18 18 19 18 18 18 18 18 18 18 18 18 18 19 18 18 19 19 19 19 19 19 19 19 19 18 18
25 24 23 22 21 20 20 20 19 19 19 19 19 18 18 18 18 18 18 18 18 18 18 18 18 18 18 18 18 18 18 18 18 18 19 19 19 19 19 19 19 19 18
25 24 23 22 21 21 20 20 20 19 19 19 19 18 18 18 18 18 18 18 18 18 18 18 18 18 18 18 18 18 18 18 18 19 19 19 19 19 19 19 19 19 18
25 24 23 22 22 21 20 20 20 19 19 19 18 18 18 18 18 18 18 18 18 18 18 18 18 18 18 18 18 18 18 18 18 18 19 19 19 19 18 19 19 19 19
26 24 23 22 22 21 20 20 20 19 19 19 19 18 18 18 18 18 18 18 18 18 18 18 18 18 18 18 18 18 18 18 18 18 18 19 19 19 18 18 18 18 18
26 25 24 23 22 21 20 20 20 19 19 19 18 18 18 18 18 18 18 18 18 18 18 18 18 18 18 18 18 18 18 18 18 18 18 18 18 18 18 18 18 18 18
26 25 24 23 22 21 21 20 20 19 19 19 18 18 18 18 18 18 18 18 18 18 18 18 18 18 18 18 18 18 18 18 18 18 18 18 18 18 18 18 18 18 18
26 25 24 23 22 21 21 20 20 19 19 19 18 18 18 18 18 18 18 18 18 18 18 18 18 18 18 18 18 18 18 18 18 18 18 18 18 18 18 18 18 17 17
26 25 24 23 22 21 21 20 20 19 19 18 18 18 18 18 17 17 17 17 17 17 18 18 18 18 18 18 18 18 17 17 17 18 18 18 18 18 18 18 17 17 17
25 24 24 23 22 21 21 20 20 19 19 18 18 18 18 18 17 17 17 17 17 17 17 17 17 17 17 17 17 17 17 17 17 17 17 17 17 17 17 17 17 17 17
25 24 23 23 22 21 21 20 20 19 18 18 18 18 17 17 17 17 17 17 17 17 17 17 17 17 17 17 17 17 17 17 17 17 17 17 17 17 17 17 17 17 17
25 24 23 22 22 21 20 19 19 19 18 18 18 18 17 17 17 17 17 17 17 17 17 17 17 17 17 17 17 17 17 17 17 17 16 16 17 17 17 17 17 17 16
24 23 22 22 21 20 20 19 19 18 18 18 18 18 17 17 17 17 17 17 17 17 16 17 16 17 17 17 17 16 16 16 16 16 16 16 16 16 16 16 16 16 16
23 23 22 21 20 20 20 19 19 18 18 18 17 17 17 17 17 17 17 17 17 16 16 16 16 16 16 16 16 16 16 16 16 16 16 16 16 16 16 16 16 16 16
23 22 21 20 20 20 19 19 18 18 18 17 17 17 17 17 17 17 17 17 16 16 16 16 16 16 16 16 16 16 16 16 16 16 16 16 16 16 16 15 15 15 15
23 22 21 20 19 19 19 18 18 18 18 17 17 17 17 17 16 16 16 16 16 16 16 16 16 16 16 16 16 16 15 15 15 15 15 15 15 15 15 15 15 15 15
22 21 20 20 19 19 18 18 18 18 17 17 17 16 16 16 16 16 16 16 16 16 16 15 15 15 15 15 15 15 15 15 15 15 15 15 15 15 15 15 15 15 15
21 21 20 19 19 18 18 18 18 18 17 17 16 16 16 16 16 16 16 16 15 15 15 15 15 15 15 15 15 15 15 15 15 15 15 15 15 15 15 15 15 15 15
21 20 20 19 19 18 18 17 17 17 17 16 16 16 16 16 16 15 15 15 15 15 15 15 15 15 15 15 15 15 15 14 15 15 15 15 14 15 15 15 15 15 15
20 19 19 19 18 18 17 17 17 16 16 16 16 15 15 15 15 15 15 15 15 15 15 14 14 14 14 15 14 14 14 14 14 14 14 14 14 14 14 14 14 14 14
20 19 18 18 18 17 17 17 16 16 16 16 15 15 15 15 15 15 14 14 14 14 14 14 14 14 14 14 14 14 14 14 14 14 14 14 14 14 14 14 14 14 14
19 18 18 17 17 17 16 16 16 16 16 15 15 15 14 14 14 14 14 14 14 14 14 14 14 14 14 14 14 14 14 14 13 13 14 14 14 14 14 14 14 14 14
18 17 17 17 16 16 16 16 16 15 15 15 15 14 14 14 14 14 14 14 14 14 13 14 14 14 14 14 14 14 14 13 13 13 13 13 13 13 13 13 13 13 13
17 17 17 16 16 15 15 15 15 15 15 14 14 14 14 14 14 14 14 14 14 14 13 14 14 14 14 13 13 13 13 13 13 13 13 13 13 13 13 13 13 13 13
17 17 16 16 15 15 15 15 15 15 14 14 14 14 14 14 14 14 13 13 14 14 14 14 14 13 13 13 13 13 13 13 13 13 13 13 13 13 12 12 12 12 12
17 16 16 15 15 15 14 14 14 14 14 14 13 13 13 13 13 13 13 13 13 14 14 14 13 13 13 13 13 13 13 13 13 13 13 13 12 12 12 12 12 12 12
Wind_Speed
8 8 8 9 10 9 8 7 5 5 4 2 2 2 2 2 1 2 3 3 3 2 3 2 1 1 1 1 1 1 1 1 1 1 1 2 3 2 2 1 1 2 3
9 8 9 9 9 8 8 7 6 6 4 3 3 3 2 2 2 1 2 2 2 2 3 2 2 2 1 1 1 1 1 2 2 1 2 1 1 2 1 1 2 1 1
10 10 9 9 9 9 8 7 6 6 5 4 3 2 2 1 1 1 1 2 2 2 3 3 2 2 2 2 3 2 3 3 2 1 1 1 1 1 0 1 1 2 1
9 9 9 8 8 9 8 7 6 5 4 4 3 3 3 2 2 2 1 2 2 3 4 3 3 2 2 2 3 2 3 3 3 2 2 2 1 1 1 1 1 1 2
8 10 9 8 8 8 8 7 6 5 5 4 3 3 3 2 1 1 2 2 2 3 3 3 3 3 2 3 3 2 3 2 3 2 2 2 2 2 2 2 1 1 1
7 8 8 8 7 8 8 8 7 6 5 4 3 3 2 2 2 2 2 3 2 2 3 3 2 3 2 2 2 3 3 3 3 3 2 2 2 1 2 2 2 2 2
7 8 8 8 7 7 7 7 8 7 6 5 4 3 3 3 2 2 2 3 2 2 2 2 2 2 2 2 2 2 3 3 3 3 3 2 2 2 2 2 2 2 1
6 7 7 7 7 7 7 7 7 7 7 6 4 3 3 3 2 2 2 3 2 2 1 2 2 2 3 3 2 2 3 3 3 4 3 3 2 2 2 2 1 2 2
5 5 6 7 6 6 6 6 6 6 6 6 5 4 4 3 2 2 2 2 2 2 1 2 2 2 2 2 2 2 2 2 3 3 3 3 2 2 2 2 2 2 2
5 5 5 5 5 6 5 4 6 6 6 5 5 4 4 3 3 3 2 2 2 2 2 2 2 2 2 2 2 2 2 2 2 3 3 3 3 3 3 2 2 2 2
5 5 4 5 5 4 5 3 4 6 6 5 4 3 4 4 4 3 2 2 2 1 2 2 2 2 2 2 2 3 2 2 3 3 3 3 3 3 3 2 1 1 2
5 5 4 4 4 4 3 4 3 4 5 4 4 4 3 3 3 3 2 2 2 2 2 2 2 3 3 2 3 4 3 3 3 3 3 3 3 3 3 2 2 2 2
5 5 5 4 3 3 2 2 3 3 4 4 4 4 3 3 3 2 2 1 1 2 2 2 3 3 3 3 3 4 4 4 4 3 4 4 3 3 3 2 3 3 3
4 4 4 4 3 2 2 1 1 1 2 3 3 3 3 2 2 2 2 2 2 3 2 3 3 3 3 3 3 4 4 4 4 4 4 4 4 3 3 4 3 3 3
3 3 3 3 2 2 1 1 1 1 1 1 3 2 2 1 2 2 2 2 3 3 3 3 3 3 3 3 3 4 5 4 4 4 4 4 4 4 4 4 3 3 4
3 2 3 3 2 1 1 1 1 1 1 1 1 1 1 2 2 1 1 2 2 2 2 3 3 3 3 3 4 4 5 4 4 4 4 4 3 3 4 4 4 5 4
2 2 2 1 2 1 1 1 1 1 1 1 0 1 1 2 2 2 1 2 2 2 2 2 2 2 2 3 3 4 4 4 4 4 4 5 4 2 2 2 3 4 6
2 2 2 1 1 2 2 1 0 1 1 0 1 0 1 1 2 2 2 2 2 2 2 2 2 2 3 3 3 4 4 4 4 3 3 3 2 3 3 3 3 3 3
3 2 1 2 2 2 2 1 1 1 0 0 1 1 1 2 2 2 2 2 2 2 2 2 2 2 2 2 2 2 3 3 2 2 2 1 1 2 2 2 3 3 2
3 3 3 3 3 3 2 1 2 2 1 1 1 1 2 2 2 1 2 2 1 2 2 2 2 2 2 1 0 1 2 2 2 1 1 1 1 1 1 2 2 2 3
4 4 3 3 3 3 3 2 2 2 2 1 1 1 1 2 1 1 1 1 2 2 2 2 2 2 2 2 2 1 1 2 2 2 1 1 1 1 3 3 2 3 3
4 3 3 3 3 3 3 2 2 2 2 1 1 1 1 2 1 1 1 1 1 2 3 3 3 2 2 2 2 2 2 3 2 2 2 1 2 2 4 3 3 4 2
3 2 2 2 2 3 2 2 3 3 3 2 1 1 1 2 1 1 1 1 1 2 2 3 3 2 1 1 2 3 3 4 2 2 2 3 3 3 3 3 3 2 1
1 1 1 2 2 2 2 2 2 2 2 2 1 1 0 1 0 1 1 1 2 2 2 2 1 1 0 1 0 2 3 3 3 3 2 3 4 4 3 2 2 1 1
2 2 1 1 2 2 2 2 2 2 1 1 1 1 1 1 1 0 1 1 1 1 1 1 1 1 1 1 1 1 2 2 2 2 2 2 1 1 1 1 0 0 0
1 2 1 1 1 1 1 1 1 1 1 1 1 1 1 1 1 0 1 4 1 2 2 0 1 0 1 1 1 1 2 2 1 0 2 2 1 1 1 1 1 1 1
Wind_Direction
156 150 148 145 146 149 151 154 154 150 159 159 171 187 184 201 202 191 166 175 211 223 256 280 264 252 250 251 292 292 277 275 264 295 292 269 248 215 190 205 191 198 189
158 154 155 154 155 153 154 153 165 165 175 171 185 194 186 207 199 199 147 187 207 222 239 259 259 244 232 231 243 256 272 271 233 241 266 279 297 288 224 171 180 180 186
163 162 165 167 164 165 170 170 163 164 181 174 186 192 175 222 221 199 175 198 212 219 260 256 262 264 240 227 227 222 236 257 269 240 242 256 247 295 287 227 145 154 176
161 163 170 176 175 175 175 164 160 161 171 181 189 196 194 209 215 206 202 218 215 225 232 240 246 259 264 263 249 219 240 251 258 258 252 258 291 254 286 271 195 194 194
164 167 175 176 176 172 170 163 155 162 167 177 190 207 214 207 210 203 212 230 234 236 235 230 235 243 245 263 282 279 261 261 268 268 268 274 270 247 233 263 278 283 242
157 160 165 163 168 168 169 163 156 167 173 183 184 200 227 230 227 227 229 237 233 233 239 242 240 240 244 250 266 269 268 272 286 286 280 273 265 259 240 248 256 266 267
151 152 155 158 167 170 169 167 163 172 176 181 190 199 225 233 234 238 239 255 258 251 236 257 258 254 263 249 249 264 272 264 266 273 279 281 273 269 263 249 263 270 276
137 145 154 159 166 169 167 172 170 172 176 182 190 202 213 231 241 246 249 253 258 251 240 242 242 251 262 263 252 245 255 259 260 266 269 270 275 270 261 246 267 286 274
129 137 149 158 164 171 168 175 165 171 178 184 188 193 204 222 239 241 247 256 267 260 260 232 237 246 259 270 272 265 263 268 263 263 265 267 268 273 268 245 224 232 264
120 125 140 156 162 170 162 164 163 171 176 185 194 202 203 210 231 243 248 262 270 283 282 278 266 255 247 252 268 269 271 277 284 266 263 267 267 273 268 259 246 217 227
115 117 125 141 144 147 150 153 166 170 177 185 188 194 199 207 219 235 241 253 269 265 258 271 279 274 262 255 261 269 263 264 276 281 273 263 264 274 283 275 263 246 228
101 113 119 122 129 136 143 156 168 177 178 180 183 193 201 206 219 229 234 241 261 261 256 253 260 266 268 260 257 264 267 259 264 268 271 266 260 262 264 269 252 241 235
98 112 120 113 109 115 125 149 185 191 187 187 193 197 209 213 228 237 230 227 243 259 264 267 265 267 272 269 270 272 274 271 267 264 257 263 262 260 260 253 247 250 249
100 107 116 108 99 95 109 144 194 190 192 184 199 204 217 223 231 247 232 229 232 239 255 261 266 269 271 273 280 284 274 271 273 272 264 262 258 254 252 243 234 243 245
107 103 107 106 106 101 95 116 141 125 136 197 206 206 217 224 239 241 237 236 241 246 253 261 263 266 261 269 286 285 277 279 279 278 276 264 258 250 246 248 231 236 237
78 80 96 108 112 103 81 57 50 85 115 160 235 206 207 218 233 236 228 242 246 262 263 259 260 268 273 293 289 284 286 279 275 277 282 267 261 248 246 243 234 231 230
81 72 85 95 133 133 100 66 40 112 122 139 231 203 209 216 236 248 234 247 245 250 261 262 256 257 272 294 295 291 278 274 269 269 274 276 278 277 278 255 232 232 227
75 76 78 77 62 105 84 42 120 144 144 163 269 287 268 252 250 247 239 241 242 249 253 256 266 267 278 293 300 297 268 264 266 272 270 277 303 295 309 274 256 251 254
62 61 65 81 70 62 70 37 10 91 101 343 323 314 275 262 271 254 245 244 242 252 248 245 260 270 279 287 290 288 272 264 268 261 275 265 261 321 323 286 267 270 275
65 51 43 58 59 53 67 59 28 45 31 354 334 333 320 293 271 262 256 247 236 234 243 249 250 258 262 220 242 276 264 272 274 254 232 254 278 302 313 298 272 264 268
67 63 44 43 53 44 48 52 33 17 6 353 359 352 342 303 284 277 269 236 229 228 233 253 256 246 247 184 181 228 258 281 287 281 276 281 284 326 320 310 286 255 257
66 58 43 37 41 36 34 25 20 15 19 25 14 347 331 304 322 342 297 245 225 233 234 241 251 243 221 176 189 203 238 271 294 292 296 263 246 280 296 293 282 279 272
58 61 48 40 38 39 35 19 11 14 20 19 12 360 358 345 357 328 289 271 237 238 244 243 242 248 213 165 180 214 250 280 281 290 301 288 261 256 262 256 259 261 261
21 33 33 22 23 33 42 47 24 23 26 23 2 336 316 271 318 288 268 267 258 252 255 258 272 293 29 75 253 257 263 274 285 299 303 278 262 258 268 261 247 212 224
359 13 22 2 6 35 37 31 25 20 8 7 331 295 303 315 32 17 332 308 344 344 278 291 302 330 312 336 350 237 272 285 305 302 292 281 270 226 240 242 234 247 269
356 3 9 355 4 21 33 26 35 52 11 332 318 283 269 281 238 230 11 26 34 81 72 54 227 1 130 135 82 263 289 299 332 129 251 256 246 244 258 293 291 261 255
Height
1507 1510 1512 1514 1516 1517 1519 1520 1521 1522 1524 1525 1526 1527 1528 1530 1531 1531 1531 1532 1532 1532 1533 1533 1534 1534 1534 1535 1535 1535 1535 1535 1535 1536 1536 1536 1535 1535 1534 1534 1533 1533 1534
1506 1509 1511 1513 1515 1516 1518 1519 1520 1521 1522 1524 1525 1526 1528 1529 1530 1530 1530 1531 1531 1531 1532 1532 1532 1532 1533 1533 1533 1534 1534 1534 1535 1535 1534 1534 1535 1534 1533 1533 1533 1532 1532
1504 1507 1509 1511 1513 1514 1516 1518 1519 1520 1521 1523 1524 1526 1527 1527 1528 1529 1529 1529 1530 1530 1530 1530 1531 1531 1531 1532 1532 1532 1533 1533 1534 1534 1534 1534 1533 1532 1532 1532 1532 1532 1532
1501 1504 1507 1509 1511 1513 1515 1516 1517 1518 1520 1521 1523 1524 1525 1526 1527 1527 1527 1528 1528 1528 1528 1529 1529 1529 1530 1530 1531 1531 1531 1532 1532 1532 1532 1532 1532 1532 1531 1531 1531 1530 1530
1498 1501 1504 1507 1510 1512 1513 1514 1516 1517 1518 1520 1521 1522 1523 1524 1525 1526 1526 1526 1527 1527 1527 1527 1527 1528 1528 1528 1529 1529 1529 1530 1530 1530 1530 1530 1530 1530 1530 1530 1530 1529 1529
1496 1500 1503 1506 1508 1510 1512 1513 1514 1515 1517 1518 1519 1520 1521 1522 1523 1523 1524 1524 1525 1525 1525 1525 1525 1526 1526 1526 1526 1527 1527 1528 1528 1528 1529 1529 1529 1529 1529 1528 1528 1528 1528
1495 1498 1501 1504 1507 1509 1510 1512 1512 1513 1515 1516 1517 1518 1519 1520 1521 1521 1521 1522 1522 1523 1522 1523 1523 1523 1523 1524 1524 1524 1525 1525 1525 1526 1526 1526 1527 1527 1527 1527 1526 1526 1526
1494 1497 1500 1502 1505 1507 1508 1509 1510 1511 1513 1514 1515 1516 1517 1518 1518 1519 1519 1520 1520 1520 1520 1520 1520 1521 1521 1521 1521 1522 1522 1523 1523 1523 1523 1524 1524 1524 1524 1524 1524 1524 1524
1493 1496 1498 1501 1503 1505 1506 1508 1509 1510 1510 1512 1513 1514 1515 1515 1516 1517 1517 1517 1517 1518 1518 1517 1517 1518 1519 1519 1519 1519 1519 1520 1520 1520 1521 1521 1521 1521 1521 1522 1522 1522 1521
1493 1495 1497 1500 1502 1503 1505 1506 1507 1507 1508 1509 1511 1512 1512 1513 1513 1514 1514 1515 1515 1515 1515 1515 1515 1516 1516 1516 1516 1516 1517 1517 1517 1517 1517 1517 1518 1518 1518 1518 1519 1519 1519
1492 1494 1496 1498 1500 1502 1503 1504 1505 1505 1507 1508 1509 1510 1510 1510 1511 1511 1511 1512 1512 1512 1512 1512 1513 1513 1513 1513 1513 1513 1513 1514 1514 1514 1514 1514 1514 1515 1515 1515 1515 1515 1516
1491 1493 1496 1498 1500 1501 1502 1503 1503 1504 1505 1506 1507 1507 1508 1508 1508 1508 1509 1509 1509 1509 1509 1509 1509 1510 1510 1510 1510 1510 1510 1510 1510 1510 1511 1510 1511 1511 1511 1512 1512 1512 1513
1492 1493 1495 1497 1498 1500 1500 1501 1502 1503 1503 1504 1504 1505 1505 1505 1505 1506 1506 1506 1506 1506 1506 1506 1506 1507 1507 1507 1507 1507 1507 1507 1507 1507 1506 1506 1507 1507 1508 1508 1508 1509 1509
1492 1493 1495 1496 1497 1498 1499 1500 1500 1501 1502 1502 1502 1502 1503 1503 1503 1503 1503 1503 1503 1503 1503 1503 1503 1503 1504 1504 1503 1503 1503 1503 1503 1503 1503 1503 1503 1504 1504 1505 1505 1505 1506
1491 1493 1494 1495 1496 1497 1498 1498 1499 1499 1499 1500 1500 1500 1500 1500 1500 1500 1500 1500 1500 1500 1500 1500 1500 1500 1500 1500 1500 1499 1499 1499 1499 1499 1499 1500 1500 1500 1501 1501 1501 1502 1502
1491 1492 1493 1494 1495 1495 1496 1496 1497 1497 1497 1497 1498 1498 1498 1497 1497 1498 1497 1497 1497 1497 1497 1497 1496 1496 1496 1496 1496 1496 1496 1496 1496 1495 1495 1496 1497 1497 1497 1497 1498 1498 1499
1490 1491 1492 1493 1493 1494 1494 1494 1495 1495 1495 1495 1495 1495 1495 1495 1495 1495 1495 1494 1494 1494 1494 1494 1493 1493 1493 1493 1493 1493 1492 1492 1492 1492 1492 1493 1493 1493 1493 1493 1494 1495 1496
1489 1490 1491 1491 1492 1492 1493 1493 1493 1493 1493 1493 1493 1492 1492 1492 1492 1492 1491 1492 1492 1491 1491 1491 1491 1490 1490 1490 1490 1489 1489 1489 1489 1489 1489 1489 1489 1490 1490 1490 1490 1491 1492
1488 1489 1490 1490 1490 1490 1491 1491 1491 1491 1491 1490 1490 1490 1490 1489 1489 1489 1489 1489 1489 1489 1489 1488 1488 1488 1487 1487 1487 1487 1487 1487 1486 1486 1486 1486 1486 1487 1487 1487 1487 1487 1488
1487 1488 1489 1488 1488 1489 1489 1489 1489 1489 1489 1488 1488 1488 1487 1487 1487 1486 1486 1486 1486 1486 1486 1486 1486 1486 1485 1485 1484 1485 1485 1485 1484 1484 1484 1484 1484 1484 1484 1484 1484 1483 1484
1487 1487 1487 1488 1488 1488 1488 1488 1487 1487 1487 1487 1486 1486 1485 1485 1485 1484 1484 1484 1484 1484 1484 1484 1484 1484 1483 1483 1483 1483 1483 1482 1483 1482 1482 1482 1482 1481 1482 1482 1481 1480 1482
1486 1486 1487 1487 1487 1487 1487 1486 1486 1486 1486 1485 1484 1484 1484 1483 1483 1483 1482 1482 1482 1481 1481 1481 1481 1481 1481 1481 1481 1481 1481 1481 1481 1480 1480 1480 1479 1479 1479 1479 1479 1479 1479
1486 1486 1486 1486 1486 1486 1485 1485 1485 1485 1484 1483 1483 1482 1482 1482 1481 1481 1481 1480 1480 1479 1479 1479 1479 1479 1479 1479 1480 1480 1480 1479 1479 1479 1478 1478 1478 1477 1477 1477 1477 1477 1477
1485 1485 1485 1485 1485 1484 1484 1484 1483 1483 1482 1482 1482 1481 1480 1480 1480 1480 1479 1478 1478 1478 1478 1477 1477 1477 1478 1477 1477 1477 1478 1477 1477 1477 1476 1476 1476 1476 1476 1476 1476 1475 1475
1483 1483 1483 1483 1483 1483 1483 1482 1482 1482 1481 1481 1480 1480 1479 1478 1478 1478 1477 1477 1477 1477 1476 1476 1476 1475 1475 1475 1476 1476 1476 1475 1475 1474 1474 1474 1474 1474 1474 1474 1474 1474 1474
1482 1482 1482 1482 1482 1481 1481 1481 1480 1480 1480 1479 1479 1479 1478 1477 1477 1477 1476 1475 1475 1475 1475 1475 1475 1474 1474 1473 1473 1473 1473 1473 1473 1473 1472 1472 1472 1472 1472 1472 1472 1472 1472